Temperature
16 16 16 16 15 15 15 15 15 15 15 15 15 15 15 15 15 15 15 15 15 15 15 15 15 15 15 15 15 15 15 15 15 15 15 15 15 15 15 15 15 15 15
16 16 16 16 15 15 15 15 15 15 15 15 15 15 15 15 15 15 15 15 15 15 15 15 15 15 15 15 15 15 15 14 14 14 14 14 14 14 14 14 14 14 14
16 16 16 15 15 15 15 15 15 15 15 15 15 15 15 15 15 15 15 15 14 15 15 15 15 15 15 15 15 15 15 14 14 14 14 14 14 14 14 14 14 14 14
15 15 15 15 15 15 15 15 15 15 15 15 15 15 15 15 15 15 15 14 14 14 14 14 14 14 15 15 15 14 14 14 14 14 13 13 14 14 14 14 14 14 14
15 15 15 15 15 15 15 15 15 15 15 15 15 15 15 15 15 15 15 15 14 14 14 14 14 14 14 15 14 14 14 14 14 13 13 13 13 13 14 14 14 14 14
15 15 15 15 15 15 15 15 15 14 15 15 14 14 14 14 14 15 15 15 15 14 14 14 14 14 14 14 14 14 14 14 13 13 13 13 13 13 13 13 13 13 13
14 15 15 15 15 15 15 14 14 14 14 14 14 14 14 14 14 14 14 14 14 14 14 14 14 14 14 14 14 14 14 13 13 13 13 13 13 13 13 13 13 13 13
14 14 15 15 15 14 14 14 14 14 14 14 14 14 14 14 14 14 14 14 14 14 14 14 14 14 14 14 14 14 13 13 13 13 13 13 13 13 13 13 13 13 13
14 14 14 14 14 14 14 14 14 14 14 14 14 14 14 14 14 14 14 14 14 14 14 14 14 14 14 14 14 14 13 13 13 13 13 13 13 13 13 13 13 13 13
13 13 14 14 14 14 14 14 14 14 14 14 14 14 14 14 14 14 14 14 14 14 14 14 14 14 14 14 13 13 13 13 13 13 12 13 13 13 13 13 13 13 13
13 13 13 13 13 14 14 14 14 14 14 13 13 13 13 13 13 13 13 13 13 13 13 13 13 13 13 13 13 13 13 13 13 13 12 12 12 13 13 13 12 13 13
13 13 13 13 13 13 13 13 13 13 13 13 13 13 13 13 13 13 13 13 13 13 13 13 13 13 13 13 13 13 13 13 13 13 12 12 12 12 13 12 12 12 13
12 12 12 13 13 13 13 13 13 13 13 13 13 13 12 12 12 12 12 12 12 12 12 12 12 12 12 12 12 12 12 12 12 12 12 12 12 12 12 12 12 12 12
12 12 12 12 12 12 12 12 12 12 12 12 12 12 12 12 12 12 12 12 12 12 12 12 12 12 12 12 12 12 12 12 12 12 12 12 12 12 12 12 12 12 12
12 12 12 12 12 12 12 12 12 12 12 12 12 12 12 12 12 12 12 12 12 12 12 12 12 12 12 12 12 12 12 12 12 12 12 12 12 12 12 12 12 12 12
11 11 11 12 11 11 11 11 11 11 11 11 11 11 11 11 11 12 12 12 11 11 11 11 11 11 11 11 11 11 11 11 11 11 11 11 12 12 12 11 12 12 12
11 11 11 11 11 11 11 11 11 11 11 11 11 11 11 11 11 11 11 11 11 11 11 11 11 11 11 11 11 11 11 11 11 11 11 11 11 11 11 11 11 11 11
10 11 11 11 11 11 11 11 10 10 10 10 10 10 10 10 11 11 11 11 11 11 11 11 11 11 11 11 11 11 11 11 11 11 11 11 11 11 11 11 11 11 11
10 10 10 10 10 10 10 10 10 10 10 10 10 10 10 10 10 10 10 10 10 10 10 10 10 10 10 10 10 10 11 11 11 11 11 11 11 11 11 11 11 11 11
10 10 10 10 10 10 9 9 9 9 9 9 9 9 9 10 9 9 10 10 10 10 10 10 10 10 10 10 10 10 10 10 10 10 10 10 10 10 10 11 11 11 10
9 9 9 9 9 9 9 9 9 9 9 9 9 9 9 9 9 9 9 9 9 9 9 9 9 9 9 9 9 9 10 9 10 10 10 10 10 10 10 10 10 10 10
9 9 9 9 9 8 8 8 8 8 8 8 8 8 8 8 8 8 8 8 9 9 9 9 9 9 9 8 8 8 8 9 9 9 9 9 9 9 10 10 9 9 9
8 8 8 8 8 8 8 8 8 8 7 7 7 8 8 8 8 8 8 8 8 8 8 8 8 8 8 8 8 8 8 8 8 9 9 9 9 9 9 9 9 9 9
7 7 7 7 7 7 7 7 7 7 7 7 7 7 7 7 7 7 7 7 7 7 8 8 8 7 7 7 7 7 7 7 7 7 8 8 8 8 8 8 8 8 8
7 7 7 7 7 7 7 7 7 7 6 6 6 6 6 7 7 7 7 7 7 7 7 7 7 7 7 7 7 7 7 7 7 6 7 7 8 8 8 8 8 8 8
6 6 6 6 6 6 6 6 6 6 6 6 6 6 6 6 6 6 6 6 6 6 6 6 7 7 6 6 6 6 6 6 6 6 6 6 7 7 7 7 7 7 7
Wind_Speed
7 9 9 9 10 10 10 10 11 11 11 11 12 12 12 12 12 12 12 12 12 13 13 13 13 13 13 13 13 14 14 14 15 15 15 15 15 15 15 15 15 14 16
8 11 10 10 10 10 10 11 11 11 11 11 11 11 11 11 11 11 11 11 11 12 12 12 12 12 12 12 12 12 12 12 12 13 14 14 14 14 15 15 14 13 15
10 12 11 10 10 10 10 11 11 11 10 11 10 10 11 11 11 11 11 11 11 11 11 11 11 12 12 11 11 10 10 9 9 9 11 12 12 13 13 14 14 14 13
10 12 11 11 10 10 10 10 11 10 10 10 10 10 10 10 10 10 10 10 10 10 10 10 10 10 10 10 9 9 8 7 7 7 8 10 11 11 12 12 12 12 12
10 12 12 11 11 10 10 10 10 10 9 9 9 9 9 9 9 9 9 9 9 9 9 9 9 9 9 8 8 7 6 5 6 6 9 11 11 10 10 10 10 10 10
10 12 11 11 10 10 10 10 10 10 9 8 8 8 8 8 8 8 8 8 8 8 8 8 7 7 7 7 6 5 5 4 5 5 8 10 10 9 9 9 9 9 9
9 12 11 10 10 10 10 10 10 9 8 8 7 7 7 7 7 7 7 7 7 7 7 7 6 6 6 5 4 4 4 3 3 5 8 9 9 8 8 8 7 7 7
9 11 10 10 10 9 9 9 9 8 8 8 7 7 6 6 6 6 6 6 6 6 6 6 5 5 4 4 3 3 3 3 2 3 7 8 8 7 6 6 6 6 6
10 9 8 8 9 9 8 8 8 7 7 7 8 8 7 6 6 6 6 5 5 4 4 4 4 4 3 2 2 2 2 3 2 2 5 6 6 5 5 5 5 4 4
8 7 7 7 7 7 7 7 7 7 7 7 7 7 7 6 6 5 5 5 4 4 3 3 3 3 2 1 0 2 3 2 1 2 4 5 5 4 3 3 3 3 3
6 5 5 5 6 6 6 6 6 6 6 6 5 5 5 5 5 4 4 4 3 3 2 1 2 2 1 2 2 3 3 1 1 2 4 4 4 4 3 2 1 2 2
5 4 4 4 4 5 4 5 4 4 4 3 3 3 2 3 4 4 3 3 2 1 0 1 2 2 3 3 4 4 3 2 2 2 3 4 3 3 2 1 1 1 1
4 4 4 4 4 4 3 3 3 3 3 3 3 3 3 3 3 3 2 2 1 1 1 2 2 3 3 3 2 3 2 1 2 3 4 4 3 2 2 2 2 2 2
4 4 3 4 4 4 4 3 3 3 3 3 2 3 3 2 2 2 1 1 0 0 1 2 2 2 2 2 2 2 1 1 1 3 3 3 3 3 3 3 3 3 3
4 4 3 3 3 3 3 3 3 3 3 3 3 3 2 2 1 1 1 1 0 0 1 2 2 1 2 2 2 2 2 1 1 2 3 3 3 4 4 4 4 4 4
3 3 3 2 2 3 2 2 3 3 3 3 2 3 3 2 2 1 1 1 1 2 2 2 1 2 2 2 2 2 2 2 1 2 3 4 5 5 5 5 4 4 5
2 3 3 3 2 2 2 2 2 3 3 2 2 2 2 3 2 2 1 1 2 3 3 2 2 2 2 2 2 3 3 2 2 2 4 4 5 5 5 5 5 5 5
2 2 3 3 3 2 2 1 1 2 3 2 2 2 2 2 2 2 1 1 2 3 2 2 2 2 2 2 2 2 3 2 3 2 2 3 4 4 5 5 5 5 5
2 3 3 3 3 2 2 2 2 2 2 3 2 2 2 2 2 2 1 1 2 1 1 2 1 1 2 3 3 3 2 2 3 2 2 2 3 3 4 6 6 6 6
3 3 3 3 3 2 2 2 2 2 2 3 3 3 2 2 2 2 1 1 1 1 1 2 2 2 2 2 3 3 3 3 3 2 2 2 2 3 3 3 5 5 6
3 3 3 3 2 2 1 1 1 0 1 1 3 3 3 3 2 1 1 1 1 1 2 2 1 2 2 2 2 3 3 3 3 2 2 1 1 2 3 3 3 4 5
3 3 2 2 2 2 1 1 1 0 0 0 2 3 4 4 3 2 1 1 1 1 2 2 2 1 2 1 1 1 2 2 2 2 1 1 1 1 1 3 4 4 4
3 2 2 2 2 1 1 1 1 1 1 1 1 1 2 3 2 2 2 2 2 2 2 2 2 2 2 2 1 1 1 2 2 2 2 2 1 1 2 3 4 5 4
3 2 2 2 2 1 1 1 1 1 0 1 1 1 1 1 2 3 2 2 2 2 2 2 2 2 2 2 2 2 2 1 1 3 2 2 2 2 2 2 3 4 4
3 2 1 2 2 1 1 1 1 1 0 1 1 1 1 0 1 2 2 2 2 2 2 2 2 3 3 3 2 2 3 3 2 2 3 3 2 2 2 2 3 3 3
3 3 2 1 1 1 1 1 1 1 0 0 1 2 2 1 1 1 2 2 2 2 2 3 3 3 3 3 3 3 2 2 2 2 4 3 3 3 3 2 2 2 3
Wind_Direction
105 107 111 107 105 102 100 98 96 95 93 91 89 88 89 88 86 87 87 85 84 82 81 81 79 79 77 75 75 76 77 77 77 78 75 74 74 73 71 71 70 67 69
114 111 111 108 105 103 101 98 97 95 94 92 90 89 89 89 88 89 87 85 85 84 83 81 80 80 79 79 79 79 79 78 81 83 80 75 73 72 69 67 69 71 70
108 112 111 107 105 103 99 96 96 95 96 94 93 92 91 90 88 89 87 85 86 85 84 84 81 81 82 81 80 81 81 78 78 82 87 82 78 74 73 70 71 73 72
105 110 109 107 104 103 100 97 96 94 96 95 97 97 95 92 90 89 87 87 88 87 84 84 83 83 81 81 81 80 77 71 66 75 86 85 83 79 77 75 74 75 76
99 99 105 107 104 103 102 98 96 94 93 94 95 97 97 95 94 92 91 90 89 88 85 84 84 84 81 79 78 75 70 61 58 71 82 86 84 83 80 78 75 75 77
101 97 103 107 105 100 99 98 93 90 90 92 95 94 95 96 96 96 95 93 93 92 89 86 84 82 81 79 77 70 63 52 53 68 80 88 90 88 83 81 78 77 78
98 97 102 104 105 101 98 97 92 90 88 89 93 94 97 98 96 98 99 95 95 94 93 91 88 83 79 74 69 54 41 41 66 73 83 90 94 94 89 83 83 82 83
96 96 103 103 103 103 101 98 95 93 90 88 90 91 95 99 99 97 99 99 97 97 96 94 92 87 81 72 57 38 23 15 59 79 91 97 99 96 93 88 84 86 89
89 90 92 98 101 100 103 101 98 96 93 90 88 88 87 89 92 94 95 93 96 95 98 99 97 95 88 78 51 13 356 342 347 48 94 103 110 107 101 93 90 92 98
87 90 89 93 95 94 96 101 99 96 93 89 88 88 86 86 87 90 89 89 87 88 92 100 111 109 112 119 274 312 305 315 358 39 84 101 118 117 113 107 101 106 110
82 85 83 85 89 93 95 102 104 102 97 91 90 91 90 87 84 77 85 94 90 79 77 105 140 169 178 219 251 271 276 268 81 76 88 112 126 131 137 136 135 131 129
86 85 80 77 73 81 94 102 104 107 111 104 97 90 68 63 79 87 101 107 106 111 135 243 226 223 233 236 245 257 256 220 157 118 120 133 138 150 166 189 193 191 176
103 91 82 76 70 65 63 88 85 85 94 92 85 79 73 67 73 91 107 119 151 209 253 262 249 244 245 244 246 242 252 220 118 115 138 149 160 184 207 220 225 231 225
104 92 76 74 74 64 54 59 79 74 67 65 71 81 74 69 65 81 105 114 172 252 280 272 256 261 274 271 271 278 287 32 126 130 144 159 175 201 221 233 239 238 235
110 102 86 79 82 72 61 48 68 59 60 59 46 55 62 60 76 63 79 86 30 15 287 300 315 331 328 314 296 299 313 293 223 159 157 177 193 208 223 232 236 236 231
115 113 106 97 86 79 80 59 55 61 60 64 52 43 39 33 34 42 49 37 24 343 322 309 303 314 310 319 301 301 303 277 243 190 193 190 197 210 226 232 234 236 235
113 117 115 119 91 94 88 69 64 57 57 68 61 64 41 30 20 23 39 16 6 336 331 339 323 318 309 311 300 315 317 307 280 226 201 196 197 208 222 231 237 241 240
109 109 109 108 107 104 86 66 52 51 47 50 61 63 37 23 13 22 28 333 343 347 357 339 324 306 306 300 294 286 293 293 280 260 219 195 189 202 217 229 238 243 245
121 117 108 101 105 105 90 73 63 53 43 37 42 56 28 356 359 14 357 332 345 2 345 322 324 315 306 297 288 279 279 278 270 259 238 207 198 201 206 222 235 242 244
104 100 105 110 104 110 110 94 75 55 40 42 41 34 21 9 3 359 356 343 354 342 317 308 306 308 293 289 292 286 270 255 253 235 237 229 208 209 211 214 233 241 244
109 98 96 106 111 108 106 119 123 27 359 17 37 26 19 11 1 356 351 335 335 287 280 294 303 299 301 315 313 300 282 252 244 225 221 225 226 211 221 233 238 235 241
124 115 112 108 113 107 111 143 161 158 148 88 33 22 22 16 9 4 359 291 283 279 288 293 303 285 297 311 300 307 304 299 289 258 233 209 227 237 238 245 243 242 239
123 128 132 121 112 108 116 117 98 80 64 48 18 356 5 5 7 12 8 335 287 257 249 265 264 255 265 278 270 223 254 264 301 282 246 222 233 253 257 254 248 252 246
132 125 120 114 103 103 123 126 124 114 308 315 303 299 320 1 6 351 360 357 320 298 275 262 268 267 254 258 273 264 254 262 279 302 298 276 268 257 262 265 258 251 252
124 116 110 119 102 86 104 133 134 78 4 337 335 329 294 303 12 347 351 351 327 304 285 274 274 270 258 256 254 272 278 286 259 248 276 294 300 282 276 261 256 251 250
113 105 96 99 105 100 90 97 92 103 34 325 335 337 310 288 281 314 336 327 313 310 300 288 268 263 260 260 260 254 252 256 256 248 257 273 277 277 277 255 249 250 244
Height
1521 1522 1523 1524 1525 1526 1528 1529 1530 1531 1532 1533 1533 1534 1535 1535 1536 1536 1537 1538 1538 1539 1539 1539 1540 1540 1540 1541 1541 1541 1542 1542 1542 1543 1543 1543 1543 1543 1543 1543 1543 1543 1543
1521 1522 1523 1524 1526 1527 1528 1530 1531 1532 1533 1534 1534 1535 1536 1536 1537 1538 1538 1539 1540 1540 1540 1541 1541 1541 1542 1542 1543 1543 1543 1544 1544 1544 1544 1544 1544 1544 1544 1545 1545 1545 1545
1521 1522 1523 1525 1526 1528 1529 1530 1532 1533 1534 1535 1535 1536 1537 1538 1538 1539 1540 1540 1541 1541 1542 1542 1542 1543 1543 1544 1544 1544 1545 1545 1545 1545 1546 1546 1546 1546 1546 1546 1546 1546 1546
1522 1522 1524 1525 1527 1528 1530 1531 1532 1533 1535 1536 1536 1537 1538 1539 1539 1540 1541 1541 1542 1542 1543 1543 1544 1544 1544 1545 1545 1546 1546 1547 1547 1547 1547 1547 1547 1547 1547 1547 1547 1547 1547
1522 1523 1524 1526 1527 1528 1530 1531 1533 1534 1535 1536 1537 1538 1539 1539 1540 1541 1542 1542 1543 1543 1543 1544 1544 1545 1545 1546 1546 1547 1547 1548 1548 1548 1548 1548 1548 1549 1549 1549 1548 1548 1549
1522 1523 1525 1526 1528 1529 1530 1532 1533 1534 1535 1536 1537 1538 1539 1540 1541 1541 1542 1543 1543 1544 1544 1544 1545 1545 1546 1546 1547 1548 1548 1549 1549 1549 1549 1549 1549 1549 1549 1549 1549 1549 1550
1522 1523 1525 1526 1528 1529 1531 1532 1533 1534 1535 1536 1538 1538 1539 1540 1541 1542 1542 1543 1543 1544 1544 1545 1545 1546 1546 1547 1547 1548 1549 1549 1550 1550 1550 1550 1550 1550 1550 1550 1550 1550 1550
1523 1524 1525 1527 1528 1530 1531 1532 1533 1534 1535 1536 1537 1538 1539 1540 1541 1542 1542 1543 1543 1544 1545 1545 1545 1546 1546 1547 1547 1548 1549 1550 1550 1550 1550 1551 1551 1551 1551 1551 1551 1551 1551
1522 1524 1525 1527 1528 1529 1531 1532 1533 1534 1535 1536 1537 1538 1539 1540 1541 1541 1542 1543 1543 1544 1544 1545 1545 1546 1546 1547 1548 1548 1549 1550 1550 1550 1550 1550 1551 1551 1551 1551 1551 1551 1551
1523 1524 1525 1526 1528 1529 1530 1532 1533 1534 1535 1536 1537 1538 1538 1539 1540 1541 1541 1542 1543 1543 1544 1545 1545 1546 1546 1547 1547 1548 1549 1549 1550 1550 1550 1550 1550 1551 1551 1551 1551 1551 1551
1523 1524 1525 1526 1527 1528 1530 1531 1532 1533 1534 1535 1536 1537 1538 1538 1539 1540 1541 1541 1542 1543 1544 1544 1545 1545 1546 1546 1547 1547 1548 1548 1549 1549 1549 1550 1550 1550 1550 1550 1550 1550 1551
1522 1523 1524 1526 1527 1528 1529 1530 1531 1532 1533 1534 1535 1536 1537 1537 1538 1539 1540 1541 1541 1542 1543 1543 1544 1544 1545 1545 1546 1546 1547 1547 1547 1547 1548 1548 1549 1549 1549 1549 1550 1550 1550
1521 1523 1524 1525 1526 1527 1528 1529 1530 1531 1532 1533 1534 1535 1536 1536 1537 1538 1538 1539 1540 1541 1541 1542 1542 1543 1543 1544 1544 1545 1545 1546 1546 1546 1546 1547 1547 1548 1548 1548 1548 1548 1548
1520 1522 1523 1524 1525 1526 1527 1528 1529 1530 1531 1532 1533 1534 1534 1535 1535 1536 1537 1538 1538 1539 1540 1540 1541 1541 1542 1543 1543 1543 1544 1544 1544 1544 1544 1545 1545 1546 1546 1546 1546 1547 1547
1519 1520 1521 1523 1524 1525 1526 1527 1528 1528 1529 1530 1531 1532 1533 1533 1534 1535 1535 1536 1537 1537 1538 1538 1539 1540 1540 1540 1541 1541 1542 1542 1542 1542 1542 1542 1543 1543 1544 1544 1544 1544 1545
1517 1519 1520 1521 1522 1523 1524 1525 1526 1527 1528 1529 1529 1530 1531 1531 1532 1533 1533 1534 1535 1535 1536 1536 1537 1537 1538 1538 1538 1539 1539 1539 1539 1539 1540 1540 1540 1541 1541 1542 1542 1542 1542
1516 1517 1518 1519 1520 1521 1522 1523 1524 1525 1526 1527 1528 1528 1529 1530 1530 1531 1531 1532 1533 1533 1534 1534 1534 1535 1535 1535 1536 1536 1536 1536 1537 1537 1537 1537 1537 1538 1538 1539 1539 1539 1540
1514 1515 1516 1517 1518 1519 1520 1521 1522 1523 1524 1525 1526 1526 1527 1528 1528 1529 1529 1530 1531 1531 1531 1532 1532 1532 1532 1532 1533 1533 1533 1533 1533 1534 1534 1534 1534 1534 1535 1536 1536 1536 1537
1512 1513 1514 1515 1516 1517 1518 1519 1519 1520 1521 1522 1523 1523 1524 1525 1525 1526 1527 1528 1528 1528 1529 1529 1529 1530 1530 1530 1530 1530 1530 1530 1530 1531 1531 1531 1531 1531 1532 1532 1533 1533 1534
1510 1511 1512 1513 1514 1514 1515 1516 1517 1518 1519 1519 1520 1521 1521 1522 1523 1523 1524 1525 1525 1526 1526 1526 1526 1527 1527 1527 1527 1526 1526 1527 1527 1527 1527 1528 1528 1528 1528 1529 1529 1530 1530
1507 1508 1509 1511 1511 1512 1512 1513 1514 1515 1515 1516 1517 1518 1519 1519 1520 1520 1521 1522 1522 1522 1523 1523 1523 1524 1524 1524 1524 1523 1524 1524 1523 1523 1524 1524 1525 1525 1525 1525 1525 1526 1526
1505 1506 1507 1508 1509 1509 1510 1511 1512 1512 1513 1514 1514 1515 1516 1516 1517 1517 1518 1518 1519 1519 1519 1520 1520 1521 1521 1521 1521 1521 1521 1521 1520 1520 1520 1521 1521 1521 1521 1522 1522 1522 1522
1502 1503 1504 1505 1506 1507 1508 1509 1509 1510 1510 1511 1511 1511 1512 1513 1514 1514 1515 1515 1515 1516 1516 1517 1517 1518 1517 1518 1519 1520 1519 1517 1517 1517 1517 1517 1518 1518 1518 1518 1518 1518 1518
1499 1501 1502 1503 1504 1505 1506 1506 1507 1507 1507 1508 1508 1509 1509 1510 1510 1511 1512 1512 1512 1512 1513 1513 1514 1514 1514 1514 1515 1516 1517 1516 1516 1514 1514 1514 1514 1514 1514 1514 1514 1514 1514
1497 1498 1500 1501 1502 1502 1503 1504 1504 1505 1505 1506 1506 1506 1506 1507 1507 1508 1508 1508 1509 1509 1509 1509 1510 1510 1510 1511 1511 1512 1512 1513 1512 1512 1510 1510 1510 1510 1510 1510 1510 1510 1509
1495 1496 1497 1498 1499 1500 1500 1501 1501 1502 1503 1503 1503 1503 1503 1503 1503 1504 1504 1505 1505 1505 1505 1505 1505 1506 1506 1507 1507 1508 1508 1508 1508 1508 1507 1506 1506 1506 1506 1506 1506 1505 1505